History for Miami, FL

Friday, November 23, 2012 — View Current Conditions

Jump to Data:

Date:
Airport Code:
Recently Viewed Airport Codes: KMIA
Daily Summary
  Actual Average Record
Temperature
Mean Temperature 69°F 74°F  
Max Temperature 79°F 81°F 87°F (1989)
Min Temperature 58°F 67°F 44°F (1944)
Degree Days
Heating Degree Days 0 0  
Month to date heating degree days 1 0  
Since 1 July heating degree days 1 0  
Cooling Degree Days 4 9  
Month to date cooling degree days 159 241  
Year to date cooling degree days 4398 4313  
Growing Degree Days 18 (Base 50)    
Moisture
Dew Point 52°F    
Average Humidity 63    
Maximum Humidity 80    
Minimum Humidity 46    
Precipitation
Precipitation 0.00 in 0.08 in 0.41 in (1965)
Month to date precipitation 0.24 2.67  
Year to date precipitation 86.17 59.26  
Snow
Snow 0.00 in in in ()
Month to date snowfall 0.0  
Since 1 July snowfall 0.0  
Since 1 September snowfall 0.0  
Snow Depth 0.00 in    
Sea Level Pressure
Sea Level Pressure 30.11 in    
Wind
Wind Speed 6 mph (NW)    
Max Wind Speed 13 mph    
Max Gust Speed 18 mph    
Visibility 10 miles    
Events      
T = Trace of Precipitation, MM = Missing Value Source: NWS Daily Summary

Show full METARS

(help) - Comma Delimited File

Hourly Observations

Time(EST) Temperature Dew Point Humidity Sea Level Pressure Visibility Wind Direction Wind Speed Gust Speed Precipitation Events Conditions
12:53 AM 60.1°F 48.9°F 67% 30.11 in 10.0 miles NNW 8.1 mph 16.1 mph N/A   Clear
1:53 AM 59.0°F 48.9°F 69% 30.10 in 10.0 miles NNW 5.8 mph - N/A   Clear
2:53 AM 59.0°F 50.0°F 72% 30.10 in 10.0 miles NW 5.8 mph 17.3 mph N/A   Clear
3:53 AM 57.9°F 50.0°F 75% 30.09 in 10.0 miles Variable 4.6 mph - N/A   Clear
4:53 AM 57.9°F 51.1°F 78% 30.09 in 10.0 miles NNW 5.8 mph - N/A   Clear
5:53 AM 57.9°F 51.1°F 78% 30.10 in 10.0 miles NW 6.9 mph - N/A   Clear
6:53 AM 57.9°F 51.1°F 78% 30.12 in 10.0 miles NNW 5.8 mph - N/A   Partly Cloudy
7:53 AM 61.0°F 51.1°F 70% 30.13 in 10.0 miles NNW 8.1 mph - N/A   Partly Cloudy
8:53 AM 66.0°F 52.0°F 60% 30.14 in 10.0 miles NNW 8.1 mph - N/A   Partly Cloudy
9:50 AM 69.8°F 53.6°F 56% 30.15 in 10.0 miles NNW 8.1 mph - N/A   Scattered Clouds
9:53 AM 69.8°F 53.6°F 56% 30.15 in 10.0 miles North 9.2 mph - N/A   Scattered Clouds
10:53 AM 73.0°F 54.0°F 51% 30.15 in 10.0 miles NNW 8.1 mph - N/A   Partly Cloudy
11:53 AM 73.9°F 55.0°F 52% 30.12 in 10.0 miles NW 5.8 mph 16.1 mph N/A   Partly Cloudy
12:53 PM 75.9°F 55.9°F 50% 30.10 in 10.0 miles WNW 6.9 mph - N/A   Partly Cloudy
1:53 PM 77.0°F 55.9°F 48% 30.07 in 10.0 miles WNW 8.1 mph - N/A   Partly Cloudy
2:53 PM 75.9°F 55.0°F 48% 30.06 in 10.0 miles NNW 4.6 mph - N/A   Scattered Clouds
3:53 PM 77.0°F 55.0°F 47% 30.06 in 10.0 miles NW 8.1 mph - N/A   Scattered Clouds
4:53 PM 73.9°F 52.0°F 46% 30.06 in 10.0 miles WNW 10.4 mph - N/A   Scattered Clouds
5:53 PM 72.0°F 51.1°F 48% 30.09 in 10.0 miles NW 8.1 mph - N/A   Scattered Clouds
6:53 PM 70.0°F 48.9°F 47% 30.09 in 10.0 miles NNW 6.9 mph - N/A   Mostly Cloudy
7:53 PM 69.1°F 48.0°F 47% 30.10 in 10.0 miles NNW 4.6 mph - N/A   Scattered Clouds
8:53 PM 68.0°F 48.9°F 50% 30.11 in 10.0 miles Calm Calm - N/A   Mostly Cloudy
9:53 PM 66.9°F 50.0°F 54% 30.12 in 10.0 miles NNW 4.6 mph - N/A   Mostly Cloudy
10:53 PM 64.9°F 52.0°F 63% 30.12 in 10.0 miles NW 4.6 mph - N/A   Scattered Clouds
11:53 PM 64.0°F 54.0°F 70% 30.10 in 10.0 miles NW 3.5 mph - N/A   Scattered Clouds